Total_Precipitation_Accumulation
0.08 0.14 0.20 0.22 0.19 0.18 0.15 0.16 0.23 0.33 0.49 0.62 0.73 0.75 0.75 0.78 0.80 0.74 0.79 0.82 0.85 0.96 0.91 0.83 0.80 0.81 0.85 0.91 0.93 0.95 1.17 1.38 1.60 1.79 1.84 1.87 1.92 1.93 1.98 2.01 1.91 2.01 2.07 2.04
0.09 0.15 0.17 0.18 0.21 0.16 0.13 0.12 0.19 0.32 0.52 0.66 0.66 0.75 0.78 0.73 0.72 0.75 0.81 0.85 0.97 1.03 1.01 0.99 0.96 1.01 1.09 1.15 1.24 1.37 1.54 1.71 1.80 1.86 1.89 1.84 1.84 1.86 2.02 2.07 2.12 2.24 2.26 2.27
0.18 0.21 0.23 0.27 0.24 0.18 0.16 0.18 0.25 0.35 0.54 0.67 0.73 0.88 0.98 0.98 0.88 0.88 0.99 1.02 1.12 1.19 1.17 1.21 1.21 1.31 1.45 1.43 1.50 1.66 1.82 1.98 1.96 1.91 1.94 1.92 1.96 1.99 2.00 2.14 2.28 2.32 2.29 2.31
0.25 0.32 0.45 0.37 0.27 0.24 0.24 0.26 0.30 0.41 0.58 0.71 0.83 0.89 1.05 1.15 1.11 1.01 0.98 1.05 1.18 1.26 1.26 1.23 1.30 1.42 1.65 1.75 1.75 1.87 1.97 2.06 2.12 2.15 2.22 2.29 2.40 2.41 2.46 2.52 2.58 2.53 2.45 2.47
0.40 0.49 0.51 0.45 0.37 0.33 0.36 0.49 0.47 0.59 0.83 0.96 0.99 1.18 1.39 1.32 1.19 1.17 1.21 1.17 1.32 1.33 1.31 1.33 1.51 1.58 1.65 1.76 1.80 1.95 2.14 2.29 2.37 2.42 2.47 2.51 2.54 2.66 2.82 2.98 3.04 2.96 2.91 2.94
0.48 0.59 0.69 0.67 0.51 0.46 0.60 1.14 0.94 0.92 0.99 0.99 1.09 1.56 1.61 1.25 1.13 1.17 1.19 1.30 1.46 1.51 1.47 1.56 1.82 1.88 1.96 2.04 2.10 2.18 2.28 2.44 2.63 2.75 2.80 2.79 2.86 3.04 3.23 3.42 3.46 3.47 3.47 3.47
0.57 0.67 0.78 0.70 0.57 0.65 1.24 1.70 1.36 1.24 1.20 1.22 1.43 1.51 1.49 1.33 1.18 1.14 1.18 1.28 1.44 1.51 1.53 1.60 1.82 2.02 2.30 2.42 2.47 2.47 2.51 2.63 2.78 2.89 3.02 3.08 3.19 3.30 3.51 3.67 3.67 3.63 3.58 3.54
0.91 1.07 1.15 0.75 0.75 1.15 1.51 1.33 1.44 1.59 1.62 1.56 1.56 1.38 1.31 1.30 1.33 1.29 1.27 1.33 1.41 1.54 1.62 1.72 1.85 2.11 2.37 2.56 2.70 2.77 2.76 2.89 2.95 2.96 2.87 2.87 3.14 3.36 3.61 3.85 3.81 3.73 3.76 3.60
1.28 1.42 1.27 0.99 1.08 1.16 1.14 1.29 1.40 1.50 1.65 1.71 1.66 1.66 1.54 1.49 1.50 1.44 1.36 1.31 1.35 1.44 1.57 1.66 1.74 1.95 2.35 2.52 2.62 2.71 2.80 2.84 2.95 2.99 3.01 3.07 3.28 3.46 3.69 3.81 3.74 3.63 3.60 3.51
1.48 1.53 1.40 1.31 1.33 1.36 1.37 1.43 1.44 1.47 1.58 1.67 1.70 1.78 1.69 1.55 1.41 1.30 1.26 1.25 1.33 1.43 1.57 1.66 1.57 1.71 1.92 2.15 2.31 2.40 2.46 2.49 2.49 2.60 2.77 3.01 3.32 3.41 3.47 3.51 3.54 3.51 3.39 3.26
1.86 1.96 1.91 1.78 1.77 1.75 1.63 1.67 1.74 1.69 1.66 1.69 1.60 1.59 1.58 1.40 1.29 1.28 1.33 1.27 1.33 1.49 1.50 1.54 1.60 1.60 1.65 1.71 1.91 2.09 2.14 2.17 2.26 2.37 2.56 2.78 3.01 3.16 3.11 3.14 3.34 3.24 3.01 2.83
1.99 2.04 2.23 2.19 1.97 1.88 1.75 1.79 1.81 1.79 1.69 1.63 1.57 1.56 1.48 1.39 1.34 1.31 1.31 1.33 1.33 1.38 1.36 1.35 1.48 1.56 1.58 1.69 1.86 1.93 1.88 1.91 1.95 2.01 2.19 2.37 2.52 2.65 2.67 2.44 2.50 2.42 2.28 2.15
1.70 1.84 1.99 2.13 2.03 1.97 1.97 1.91 1.86 1.89 1.77 1.65 1.58 1.52 1.43 1.42 1.38 1.31 1.32 1.38 1.41 1.43 1.41 1.43 1.44 1.53 1.64 1.84 2.01 2.09 2.00 1.96 1.95 1.97 2.09 2.14 2.17 2.22 2.25 2.11 1.97 1.92 1.80 1.66
1.84 2.04 2.35 2.47 2.34 2.13 2.10 1.99 1.87 1.97 1.97 1.89 1.72 1.53 1.39 1.34 1.32 1.36 1.43 1.53 1.57 1.57 1.52 1.53 1.54 1.53 1.56 1.72 1.92 2.21 2.30 2.25 2.11 2.05 2.06 2.00 1.99 2.05 2.14 2.15 2.02 1.81 1.62 1.42
2.00 2.16 2.36 2.40 2.25 2.10 2.04 2.00 1.93 1.94 1.93 1.90 1.84 1.66 1.51 1.46 1.50 1.49 1.48 1.54 1.56 1.56 1.60 1.57 1.56 1.57 1.62 1.72 1.80 1.96 2.19 2.18 2.06 2.03 2.07 2.16 2.12 2.10 2.17 2.18 2.23 2.12 1.83 1.59
2.02 2.08 2.24 2.26 2.21 2.07 1.93 1.95 1.98 1.89 1.78 1.77 1.78 1.70 1.63 1.48 1.42 1.39 1.42 1.59 1.79 1.79 1.71 1.72 1.71 1.65 1.60 1.62 1.66 1.78 1.91 1.98 1.90 1.88 1.89 2.03 2.07 2.05 2.08 2.21 2.23 2.12 1.92 1.64
1.91 2.07 2.25 2.27 2.16 1.96 1.87 1.94 1.95 1.86 1.72 1.57 1.64 1.63 1.59 1.56 1.58 1.60 1.62 1.66 1.84 1.89 1.75 1.75 1.77 1.69 1.61 1.62 1.67 1.65 1.67 1.66 1.65 1.66 1.73 1.86 1.97 2.00 1.98 1.98 2.03 1.96 1.80 1.52
1.57 1.74 1.88 1.94 1.95 1.84 1.73 1.74 1.81 1.78 1.68 1.60 1.63 1.65 1.62 1.69 1.76 1.85 1.90 1.89 1.86 1.76 1.65 1.66 1.54 1.48 1.44 1.46 1.56 1.59 1.64 1.62 1.49 1.51 1.67 1.76 1.83 1.89 1.83 1.78 1.77 1.76 1.64 1.40
1.46 1.52 1.51 1.59 1.60 1.61 1.60 1.58 1.60 1.62 1.56 1.56 1.65 1.72 1.69 1.72 1.83 1.93 1.96 2.02 2.02 1.85 1.57 1.37 1.30 1.18 1.16 1.12 1.14 1.28 1.43 1.53 1.53 1.54 1.64 1.65 1.68 1.81 1.84 1.82 1.82 1.78 1.61 1.46
1.36 1.44 1.45 1.41 1.34 1.40 1.42 1.44 1.49 1.52 1.49 1.53 1.63 1.64 1.66 1.71 1.80 1.92 1.96 1.98 1.97 1.84 1.57 1.35 1.11 0.97 0.90 0.86 0.93 1.00 1.14 1.31 1.36 1.35 1.39 1.47 1.58 1.71 1.79 1.76 1.75 1.77 1.69 1.58
1.31 1.35 1.31 1.31 1.30 1.33 1.32 1.27 1.30 1.43 1.44 1.44 1.55 1.64 1.73 1.72 1.65 1.76 1.91 1.93 1.83 1.73 1.61 1.49 1.21 1.04 0.88 0.85 0.87 0.93 1.08 1.24 1.23 1.19 1.17 1.27 1.42 1.53 1.57 1.53 1.48 1.45 1.40 1.35
1.35 1.29 1.20 1.19 1.22 1.28 1.33 1.31 1.25 1.24 1.27 1.38 1.46 1.54 1.63 1.62 1.63 1.67 1.63 1.77 1.76 1.80 1.62 1.45 1.26 1.13 1.03 0.92 0.81 0.89 1.04 1.11 1.13 1.08 1.06 1.16 1.35 1.44 1.47 1.48 1.47 1.43 1.37 1.33
1.46 1.36 1.28 1.26 1.22 1.25 1.29 1.30 1.25 1.26 1.39 1.54 1.56 1.59 1.65 1.59 1.60 1.73 1.66 1.45 1.41 1.56 1.41 1.30 1.30 1.20 1.05 0.92 0.88 0.96 1.10 1.17 1.14 1.02 1.00 1.11 1.22 1.29 1.36 1.35 1.39 1.43 1.44 1.37
1.50 1.35 1.34 1.39 1.33 1.32 1.45 1.36 1.31 1.37 1.46 1.57 1.53 1.53 1.58 1.58 1.54 1.44 1.39 1.31 1.26 1.35 1.20 1.14 1.11 1.08 1.04 1.00 1.03 1.06 1.10 1.12 1.11 1.03 1.03 1.05 1.05 1.11 1.20 1.28 1.39 1.46 1.42 1.36
1.49 1.42 1.38 1.50 1.56 1.49 1.56 1.45 1.37 1.41 1.42 1.51 1.44 1.40 1.45 1.46 1.54 1.46 1.31 1.20 1.23 1.26 1.16 1.14 1.08 1.06 1.02 1.09 1.17 1.15 1.14 1.14 1.14 1.11 1.09 1.08 1.07 1.10 1.20 1.35 1.49 1.51 1.44 1.41
1.59 1.60 1.57 1.59 1.55 1.48 1.48 1.39 1.30 1.32 1.46 1.68 1.57 1.40 1.47 1.47 1.41 1.42 1.43 1.33 1.27 1.31 1.26 1.21 1.15 1.14 1.12 1.23 1.33 1.32 1.25 1.21 1.19 1.16 1.17 1.23 1.28 1.32 1.38 1.49 1.51 1.45 1.35 1.27
1.58 1.53 1.50 1.45 1.42 1.44 1.47 1.42 1.37 1.40 1.52 1.76 1.71 1.44 1.42 1.41 1.39 1.43 1.43 1.44 1.39 1.37 1.37 1.31 1.22 1.18 1.18 1.22 1.24 1.23 1.23 1.24 1.23 1.19 1.18 1.22 1.30 1.36 1.35 1.38 1.37 1.28 1.22 1.14